ES'HAIL 2 (43700 NORAD) Tracking and Keplerian Element Data

This shows tracking and keplerian element data for the satellite.

Feedback or suggestion? Click here.




ElementValue
Catalog43700
NameES'HAIL 2
Epoch Orbit1038
Epoch Day269.84040309
Epoch Year2021
RAAN190.4275
Inclination0.0144
Eccentricity0.0002404
Argument of Perigee30.0093
Mean Anonmoly113.7656
Mean Motion1.00271304
Decay Rate1.43E-06
L11 43700U 18090A 21269.84040309 .00000143 00000-0 00000-0 0 9998
L22 43700 0.0144 190.4275 0002404 30.0093 113.7656 1.00271304 10387

Live tracking and technical data element details for ES'HAIL 2 (NORAD 43700). ES'HAIL 2 can be tracked NOW for your location showing map with azimuth and elevation plus other details from your city location.

Track the satellite on the map from your city or location and see movement details for azimuth, elevation, latitude, longitude, range, height, and movement on the map or in text.







IsCatalogInMostPopularTable: catalog: 43700, numindb: 8495
Update: records affected: 1



GetName: 43700 ES'HAIL 2

Hit Count: updated at: Mon, 27 Sep 2021 21:43:30 GMT